Temperature
23 24 26 26 25 25 24 23 22 23 23 23 22 22 22 22 22 21 21 21 21 21 20 20 20 20 19 19 19 19 18 18 17 17 17 17 16 16 16 16 16 16 16 16
23 25 25 25 25 25 25 25 24 23 23 22 22 22 22 21 21 21 20 21 21 20 20 20 20 19 19 19 18 18 18 18 17 17 17 16 16 16 16 16 16 16 16 16
21 23 24 24 24 25 24 24 24 23 22 21 21 21 21 21 21 21 20 20 20 20 20 20 19 19 19 19 18 18 17 17 17 17 16 16 16 15 15 15 15 15 15 15
20 22 23 22 23 25 24 23 23 22 21 21 21 21 22 22 21 21 21 20 20 20 20 20 19 19 19 18 18 18 17 17 17 16 16 16 15 15 15 15 15 15 15 15
18 20 21 23 24 24 23 22 22 21 21 21 21 21 20 21 22 21 21 21 20 20 20 19 19 19 18 18 18 17 17 17 16 16 16 15 15 15 15 15 15 14 14 14
19 21 21 22 23 24 23 21 21 21 20 20 21 18 18 20 21 21 20 20 20 20 19 19 19 18 18 18 17 17 17 16 16 16 16 15 15 15 15 14 14 14 14 14
18 19 20 21 23 23 21 20 21 21 21 21 19 19 20 20 20 20 20 20 20 19 19 19 18 18 17 17 17 17 16 16 16 16 15 15 15 14 14 14 14 14 14 13
17 18 19 20 21 20 19 20 20 21 21 21 20 20 20 20 20 20 19 19 19 19 18 18 18 17 17 17 17 16 16 16 15 15 15 14 14 14 14 14 13 13 13 13
17 17 18 20 20 20 21 20 20 20 20 20 20 19 19 19 19 19 19 19 18 18 18 17 17 17 17 16 16 16 15 15 15 14 14 14 14 14 13 13 13 13 13 13
16 17 18 19 19 20 20 20 20 20 20 20 19 19 18 18 18 18 18 18 18 17 17 17 16 16 16 16 15 15 15 15 14 14 14 14 13 13 13 13 12 12 12 12
16 16 17 18 19 19 19 19 19 19 19 19 18 18 18 18 18 18 17 17 17 17 16 16 16 16 15 15 15 14 14 14 14 13 13 13 13 13 13 12 12 12 12 12
15 16 15 17 18 18 19 18 18 18 18 18 18 18 17 17 17 17 16 16 16 16 16 15 15 15 14 14 14 14 14 14 13 13 13 13 12 12 12 12 12 12 12 11
17 18 18 18 18 18 18 18 18 18 17 17 17 17 17 16 16 16 16 15 15 15 15 15 14 14 14 14 14 14 13 13 13 13 12 12 12 12 12 11 11 11 11 11
18 18 17 17 17 18 17 17 17 17 17 17 16 16 16 16 15 15 15 15 15 15 14 14 14 14 13 13 13 13 13 13 13 12 12 12 12 11 11 11 11 11 11 11
17 17 17 17 16 17 17 17 16 16 16 16 16 16 15 15 15 15 15 15 15 14 14 14 13 13 13 13 13 12 12 12 12 12 12 11 11 11 11 11 10 10 10 10
17 16 16 16 16 16 16 16 16 15 15 15 15 15 15 15 15 14 14 14 14 14 13 13 13 12 12 12 12 12 12 12 12 11 11 11 11 11 10 10 10 10 10 10
16 15 15 15 15 15 15 15 15 15 15 15 15 15 14 14 14 14 14 14 13 13 13 12 12 12 12 12 12 12 12 12 11 11 11 11 10 10 10 10 10 10 9 9
16 15 15 15 15 15 15 15 15 15 15 15 14 14 14 14 14 14 13 13 13 13 12 12 12 12 12 11 12 11 11 11 11 11 11 10 10 10 10 10 10 9 9 9
15 15 15 15 15 15 15 15 15 15 14 14 14 14 14 14 14 13 13 13 12 12 12 12 12 11 11 11 11 11 11 11 11 11 10 10 10 10 10 9 9 9 9 9
15 15 15 15 15 14 14 14 14 14 14 14 14 14 13 13 13 13 12 12 12 12 12 11 11 11 11 11 11 11 11 10 10 10 10 10 10 10 9 9 9 9 9 8
14 14 14 14 14 14 14 14 14 14 13 13 13 13 13 13 12 12 12 12 12 11 11 11 11 11 11 11 11 10 10 10 10 10 10 10 9 9 9 9 9 9 8 8
14 14 14 14 14 14 14 14 14 13 13 13 13 13 12 12 12 12 12 12 11 11 11 11 11 10 10 10 10 10 10 10 10 9 9 9 9 9 9 9 9 8 8 8
13 14 14 14 14 13 13 13 13 13 13 13 12 12 12 12 12 12 11 11 11 11 11 11 10 10 10 10 10 10 10 9 9 9 9 9 9 9 9 9 8 8 8 8
13 13 13 13 13 13 13 13 13 13 13 12 12 12 12 12 11 11 11 11 11 10 10 10 10 10 10 10 9 9 9 9 9 9 9 9 9 9 8 8 8 8 8 8
13 13 13 13 13 13 13 12 12 12 12 12 12 12 12 12 11 11 11 11 10 10 10 10 10 10 9 9 9 9 9 9 9 9 9 9 8 8 8 8 8 8 7 7
12 13 13 13 12 12 12 12 12 12 12 12 11 11 11 11 11 11 11 10 10 10 10 10 10 9 9 9 9 9 9 9 9 8 8 8 8 8 8 8 7 7 7 7
12 12 12 12 12 12 12 12 12 12 12 12 11 11 11 11 11 11 10 10 10 10 10 9 9 9 9 9 9 9 9 9 9 8 8 8 8 8 8 7 7 7 7 7
Wind_Speed
4 4 1 1 2 2 2 5 6 7 7 8 8 9 10 10 11 11 11 10 10 9 7 7 7 6 7 6 6 6 5 5 4 3 3 2 1 1 1 1 1 0 0 1
3 3 3 2 2 1 2 1 2 3 2 3 4 6 8 9 11 10 10 10 10 9 8 8 7 7 6 6 6 6 6 5 4 3 3 2 2 1 1 0 0 0 0 1
2 4 4 3 3 2 1 2 3 4 4 5 5 7 8 9 9 9 9 9 9 9 9 8 8 8 7 6 5 6 5 4 4 4 3 2 2 2 1 1 0 0 1 1
1 3 3 7 3 2 3 2 2 4 4 7 7 5 5 6 7 7 8 8 8 8 7 7 6 6 5 5 6 5 4 4 4 4 3 2 2 2 2 1 1 1 1 1
3 2 5 6 4 1 3 2 2 6 6 6 8 7 4 2 4 6 7 7 7 7 7 7 7 7 6 5 5 4 4 4 4 4 4 3 3 3 2 2 2 2 2 2
3 3 5 5 6 3 5 2 2 5 6 5 6 4 2 1 4 5 5 5 6 6 6 6 6 6 7 5 5 4 4 4 3 3 4 4 4 3 2 1 2 2 2 2
3 3 5 6 6 4 3 5 2 3 5 3 3 5 5 4 5 5 5 6 6 7 6 5 5 7 6 4 4 4 3 3 3 2 3 3 2 2 1 1 1 1 2 2
3 2 5 5 4 3 4 2 3 4 4 5 5 5 5 6 6 6 6 5 6 6 5 4 5 6 5 3 2 2 2 2 1 1 1 2 2 1 1 1 1 1 1 2
5 5 4 2 2 2 4 5 3 2 3 6 7 6 6 5 5 5 5 5 5 6 5 4 3 5 5 2 2 3 3 2 1 1 1 1 2 2 1 1 1 1 1 2
2 1 2 3 4 4 5 5 4 4 4 6 6 6 6 5 5 5 5 5 6 7 6 4 2 3 3 2 3 3 2 2 1 1 1 0 1 1 2 2 2 2 2 2
1 1 3 5 4 5 6 6 7 6 6 5 7 6 6 6 5 5 5 4 5 6 5 3 3 3 2 2 4 3 2 1 1 1 1 0 1 1 2 3 4 4 3 3
4 4 2 2 1 4 6 5 5 5 5 4 5 6 6 5 5 5 5 4 4 5 4 3 3 2 2 2 3 3 2 1 1 1 1 1 0 2 3 2 2 2 3 3
3 2 2 2 1 2 3 4 4 5 5 4 4 5 6 5 4 5 5 4 4 4 4 3 3 2 1 2 2 2 2 2 1 1 1 1 1 1 2 4 4 3 3 4
3 4 2 1 1 2 4 5 5 6 6 6 5 4 5 5 4 5 4 4 4 4 3 3 3 2 1 2 2 1 1 1 2 2 2 1 1 1 1 1 2 4 4 5
1 4 4 2 2 3 5 6 7 6 4 5 4 4 5 5 4 3 2 3 4 4 3 3 3 1 1 2 1 1 1 0 1 2 1 1 0 0 0 0 1 1 2 4
3 4 6 5 3 3 5 6 7 5 4 4 4 3 3 4 4 3 3 4 5 4 3 3 2 1 1 2 2 1 1 2 1 1 1 0 0 0 0 1 1 1 1 2
5 3 4 4 3 3 4 4 5 5 4 4 3 3 4 5 4 3 2 3 4 4 4 3 3 2 2 2 2 1 1 1 3 2 0 1 1 2 2 2 2 2 2 2
6 5 5 6 5 3 3 3 4 4 4 4 4 4 4 5 5 4 3 3 3 2 2 3 3 2 1 1 1 1 1 0 0 0 1 1 2 2 2 2 2 2 3 3
4 4 4 4 4 4 4 4 4 3 3 4 3 3 4 4 4 4 4 4 4 2 2 2 3 2 1 1 2 1 1 0 0 0 0 1 1 1 1 2 3 3 2 2
2 3 3 2 2 3 4 4 4 3 3 3 3 3 3 3 3 4 4 3 2 3 3 2 2 1 1 1 1 1 1 1 0 0 0 1 1 2 2 3 3 3 2 2
2 2 3 2 2 3 4 4 5 4 3 3 4 3 3 3 3 4 3 1 2 1 2 3 2 1 1 1 1 1 1 1 0 1 1 1 2 2 2 3 3 3 3 3
2 2 2 2 3 3 3 4 4 4 4 3 3 3 4 3 2 2 2 2 2 2 2 1 1 1 1 1 1 1 0 0 0 1 1 2 2 3 3 3 3 3 3 3
2 2 2 2 3 3 2 2 3 4 5 5 4 4 4 4 3 3 2 2 2 3 2 1 1 1 1 1 1 1 0 1 1 2 2 2 3 3 3 3 3 3 3 3
2 1 2 2 3 3 2 2 2 3 5 4 4 4 4 3 1 2 3 3 3 2 1 1 1 0 1 0 0 1 1 1 2 2 2 3 3 2 2 2 2 2 2 3
3 2 2 3 3 2 3 2 2 2 3 2 1 2 3 3 3 3 3 3 4 3 1 2 1 1 0 1 1 1 2 2 2 2 2 2 2 2 2 2 1 2 2 2
2 3 3 3 3 2 2 2 2 2 3 2 1 1 1 2 2 2 2 3 4 3 2 2 2 2 1 2 2 2 2 2 2 2 2 1 1 1 2 2 2 2 2 2
3 3 2 1 1 2 3 3 3 2 2 3 2 0 1 1 2 2 3 2 2 2 2 2 2 2 2 2 2 2 2 2 2 2 2 1 1 1 2 2 2 3 2 2
Wind_Direction
226 234 143 314 282 258 220 199 190 214 192 205 197 176 164 153 148 146 153 153 156 157 155 151 152 156 155 156 159 157 151 152 164 164 156 151 145 143 130 145 158 154 118 324
332 327 15 350 330 289 280 232 174 145 212 210 158 143 143 146 146 157 162 160 156 153 152 156 158 158 157 159 163 156 158 171 175 166 164 169 170 156 138 110 8 95 121 298
287 314 14 316 240 217 273 311 159 169 204 153 123 143 155 154 154 160 159 155 158 161 164 164 162 160 165 167 158 157 164 171 175 173 174 183 180 155 164 187 172 125 260 286
170 27 234 244 255 172 118 39 77 124 136 139 138 144 135 134 148 156 154 155 159 160 160 160 157 157 155 151 152 156 162 171 178 175 179 182 180 195 208 203 200 220 246 271
135 194 267 295 328 25 132 23 22 112 113 112 108 85 60 75 132 150 154 159 163 164 161 157 158 154 140 143 150 156 171 186 193 185 186 191 201 215 217 201 217 232 233 239
143 174 225 258 299 321 93 30 342 111 122 134 107 110 216 163 114 117 124 136 145 142 134 142 152 146 140 147 155 174 190 195 196 190 193 199 204 207 205 194 221 238 252 246
165 207 246 272 304 27 119 226 262 134 141 136 140 176 178 141 118 117 125 132 133 130 132 146 150 143 143 148 175 194 184 171 174 180 192 194 202 200 186 198 238 269 269 278
158 188 250 302 21 114 198 188 112 109 124 116 116 125 127 127 125 125 127 126 127 126 123 119 127 132 135 155 178 146 132 128 140 159 176 158 159 188 195 186 196 292 306 314
183 205 254 316 116 158 135 109 98 99 120 121 117 121 120 122 126 127 134 125 115 116 109 97 106 127 138 161 133 108 105 112 95 86 101 136 160 185 191 187 210 259 271 284
68 331 330 33 56 81 102 106 104 100 107 115 121 129 124 126 122 114 111 115 116 113 111 107 98 105 127 139 126 115 124 134 133 123 114 52 179 191 201 209 214 232 247 268
43 298 19 29 47 73 78 77 76 72 80 100 118 124 125 123 123 123 117 113 119 123 125 123 107 94 97 120 122 116 120 138 136 144 162 185 275 248 219 220 211 214 226 229
221 221 181 235 340 70 93 96 96 88 67 69 112 131 125 124 129 129 128 123 122 124 126 124 112 100 82 89 114 124 131 175 186 188 191 182 169 352 353 319 293 263 242 244
194 201 174 178 111 78 101 115 108 104 106 92 82 117 123 127 132 129 131 134 138 142 142 135 120 103 86 87 96 116 159 188 196 195 189 192 198 180 340 344 345 323 305 291
139 115 93 88 119 103 112 109 95 86 89 96 92 99 110 115 121 124 132 143 138 131 129 127 120 117 123 101 87 70 152 162 160 183 189 191 200 203 207 268 325 330 321 314
132 138 153 144 110 112 115 111 103 98 92 87 87 96 112 118 123 128 128 123 115 113 116 119 115 111 87 93 91 63 48 248 180 175 194 203 204 170 349 318 299 320 340 340
118 108 113 117 130 131 125 128 130 135 125 105 96 108 133 135 131 125 121 128 130 139 145 138 153 194 129 108 88 72 24 30 59 148 173 188 190 200 243 250 273 301 298 298
131 128 124 138 158 149 146 156 156 150 137 123 119 124 126 123 119 121 126 136 148 155 159 160 184 198 154 126 118 118 101 37 50 60 238 232 221 223 226 231 248 271 281 288
159 166 161 159 170 173 164 161 160 153 149 143 136 133 139 146 155 164 154 130 117 117 162 177 176 170 155 138 122 117 117 126 42 264 266 245 243 232 229 231 244 260 279 300
152 158 152 149 164 173 174 168 166 158 152 147 145 161 166 166 167 158 142 130 133 155 227 201 169 149 139 147 117 121 125 148 212 242 257 280 291 263 238 237 247 257 266 281
145 147 151 152 155 163 172 179 169 160 160 157 146 138 141 153 151 141 130 138 182 207 203 169 148 149 192 206 120 143 157 163 180 253 266 257 249 256 256 252 248 253 260 266
141 136 132 141 160 170 173 176 174 179 173 152 144 153 158 159 151 142 134 142 271 218 157 141 148 194 229 182 114 113 113 98 144 232 238 248 256 254 255 266 268 264 264 265
142 145 144 149 151 162 175 166 166 169 155 145 144 145 139 141 145 144 167 196 214 160 136 134 159 193 171 126 111 107 109 154 267 259 257 254 252 253 257 264 267 271 272 267
154 145 142 142 152 162 159 146 155 156 156 160 160 161 164 172 175 167 212 241 193 147 138 173 175 139 101 94 118 132 180 269 280 277 275 267 257 255 261 270 273 278 279 279
148 140 149 145 127 123 135 175 165 155 158 164 173 176 168 162 182 212 198 192 185 162 167 183 160 130 31 8 203 220 249 268 277 284 283 280 281 278 269 262 276 298 302 296
166 154 138 131 134 155 175 174 146 142 143 142 157 172 172 171 177 194 182 176 172 165 184 210 187 172 266 260 252 252 252 257 267 283 290 287 290 290 282 272 265 281 291 291
157 155 163 167 172 168 159 149 151 158 144 138 156 188 175 168 163 171 177 182 185 183 194 219 218 210 226 240 248 250 251 261 272 273 268 264 271 279 281 277 280 273 265 265
136 143 140 130 141 145 142 143 150 167 157 145 143 177 179 173 175 187 190 187 186 195 208 221 225 228 229 225 226 236 247 251 245 237 245 244 258 277 278 268 258 257 259 263
Height
1480 1475 1473 1475 1476 1476 1481 1486 1493 1488 1485 1479 1474 1475 1477 1480 1483 1486 1489 1491 1493 1495 1498 1500 1502 1503 1504 1506 1507 1508 1509 1509 1509 1510 1510 1511 1510 1510 1510 1510 1509 1508 1508 1507
1480 1472 1472 1476 1473 1473 1473 1474 1477 1478 1480 1472 1472 1474 1477 1479 1482 1485 1487 1489 1492 1494 1496 1498 1500 1502 1503 1504 1505 1506 1507 1507 1508 1508 1509 1509 1509 1509 1509 1508 1507 1507 1506 1505
1492 1479 1478 1486 1476 1473 1474 1472 1473 1479 1477 1472 1473 1474 1476 1478 1480 1483 1485 1487 1489 1491 1494 1496 1498 1500 1502 1503 1504 1504 1505 1505 1506 1506 1506 1507 1507 1507 1506 1506 1505 1505 1504 1503
1494 1489 1499 1484 1466 1466 1469 1471 1469 1469 1470 1470 1471 1473 1476 1478 1479 1481 1483 1486 1488 1490 1492 1494 1496 1498 1500 1501 1502 1503 1503 1503 1504 1504 1504 1504 1505 1504 1504 1504 1503 1502 1501 1500
1498 1500 1492 1476 1466 1467 1471 1476 1470 1470 1471 1472 1473 1475 1479 1479 1480 1480 1482 1485 1487 1489 1491 1493 1494 1496 1497 1499 1500 1500 1501 1501 1502 1502 1502 1502 1502 1502 1501 1501 1500 1500 1499 1498
1494 1497 1499 1483 1466 1461 1467 1481 1472 1470 1472 1473 1473 1481 1482 1479 1480 1481 1483 1484 1486 1487 1489 1491 1493 1494 1495 1496 1497 1498 1498 1499 1499 1499 1499 1499 1499 1499 1498 1498 1497 1497 1496 1495
1493 1495 1488 1473 1466 1463 1482 1483 1472 1471 1471 1472 1473 1476 1477 1478 1479 1481 1482 1483 1485 1486 1488 1489 1491 1492 1493 1494 1495 1496 1496 1497 1496 1496 1496 1496 1496 1496 1495 1495 1494 1494 1493 1492
1492 1496 1492 1470 1467 1472 1475 1471 1471 1471 1471 1472 1473 1474 1476 1477 1478 1479 1481 1482 1484 1485 1486 1488 1490 1491 1491 1492 1493 1494 1494 1494 1493 1493 1493 1493 1493 1493 1492 1492 1491 1491 1490 1489
1483 1484 1474 1469 1469 1470 1469 1470 1471 1471 1472 1472 1473 1475 1476 1477 1478 1479 1480 1482 1483 1484 1485 1487 1488 1489 1489 1490 1491 1491 1491 1491 1491 1491 1491 1491 1490 1490 1489 1488 1488 1487 1487 1485
1478 1476 1473 1471 1469 1469 1470 1470 1471 1471 1472 1472 1473 1475 1476 1477 1478 1479 1480 1481 1482 1483 1484 1485 1486 1487 1487 1488 1489 1489 1489 1488 1489 1489 1488 1488 1488 1487 1486 1485 1485 1484 1483 1482
1478 1476 1473 1472 1471 1471 1471 1471 1471 1472 1473 1473 1474 1475 1475 1476 1477 1478 1479 1480 1482 1482 1483 1484 1485 1485 1486 1486 1486 1486 1486 1486 1486 1487 1486 1486 1485 1485 1484 1483 1482 1481 1480 1479
1479 1475 1474 1474 1473 1472 1472 1472 1472 1473 1473 1474 1474 1475 1475 1476 1477 1478 1479 1480 1481 1482 1482 1482 1483 1484 1484 1484 1484 1484 1484 1484 1484 1484 1484 1483 1483 1482 1482 1481 1480 1479 1478 1478
1471 1472 1472 1473 1473 1473 1473 1472 1473 1473 1474 1474 1475 1475 1475 1476 1477 1477 1478 1479 1480 1481 1481 1482 1482 1482 1483 1483 1482 1482 1482 1482 1482 1481 1481 1481 1480 1479 1479 1478 1478 1477 1476 1475
1469 1470 1471 1472 1473 1473 1473 1473 1473 1474 1474 1474 1475 1475 1475 1476 1477 1476 1477 1478 1479 1480 1480 1480 1481 1481 1481 1481 1481 1480 1479 1479 1479 1479 1479 1478 1478 1477 1476 1475 1474 1473 1473 1472
1468 1469 1470 1471 1473 1473 1472 1472 1473 1474 1474 1474 1474 1474 1474 1475 1476 1476 1476 1477 1477 1478 1478 1479 1479 1480 1479 1479 1479 1478 1478 1477 1477 1477 1476 1476 1476 1475 1474 1473 1472 1471 1470 1469
1467 1468 1470 1472 1472 1472 1471 1471 1472 1473 1474 1473 1473 1473 1474 1475 1475 1475 1475 1475 1475 1475 1476 1477 1478 1478 1478 1478 1477 1477 1476 1476 1475 1475 1474 1474 1474 1473 1472 1471 1470 1469 1467 1466
1466 1468 1469 1470 1471 1472 1471 1471 1471 1472 1472 1472 1472 1473 1473 1474 1474 1474 1474 1474 1474 1475 1475 1476 1477 1477 1476 1476 1476 1475 1475 1474 1474 1473 1473 1473 1472 1471 1470 1469 1468 1466 1465 1464
1464 1465 1467 1468 1469 1470 1470 1471 1471 1471 1471 1471 1472 1472 1472 1472 1473 1473 1473 1473 1474 1474 1475 1475 1475 1475 1475 1474 1474 1474 1473 1473 1473 1472 1471 1471 1470 1469 1468 1467 1466 1464 1463 1462
1462 1463 1464 1465 1466 1467 1468 1469 1469 1469 1470 1470 1470 1470 1471 1472 1472 1472 1472 1472 1473 1473 1473 1474 1474 1474 1473 1473 1473 1472 1472 1471 1471 1470 1470 1469 1468 1466 1465 1464 1463 1462 1460 1459
1461 1461 1462 1463 1465 1466 1466 1467 1468 1468 1469 1469 1469 1469 1470 1470 1471 1471 1471 1471 1472 1472 1473 1473 1473 1472 1472 1471 1471 1471 1470 1470 1469 1468 1467 1466 1465 1464 1463 1461 1460 1459 1457 1456
1459 1460 1461 1462 1463 1464 1465 1465 1466 1467 1467 1468 1468 1468 1469 1469 1470 1470 1470 1470 1471 1471 1471 1471 1471 1471 1470 1470 1470 1469 1468 1468 1467 1466 1465 1464 1463 1462 1460 1459 1457 1456 1454 1453
1457 1459 1459 1459 1461 1462 1463 1464 1464 1465 1466 1467 1467 1467 1468 1469 1469 1469 1469 1470 1470 1470 1470 1470 1469 1469 1469 1468 1468 1467 1466 1466 1465 1464 1463 1461 1460 1459 1457 1456 1454 1453 1452 1450
1455 1457 1458 1458 1459 1460 1461 1461 1462 1463 1464 1465 1466 1466 1467 1467 1468 1468 1468 1468 1468 1468 1468 1468 1468 1468 1467 1467 1466 1465 1464 1464 1463 1462 1460 1459 1458 1456 1455 1453 1452 1450 1448 1447
1454 1455 1456 1457 1458 1459 1459 1460 1461 1461 1462 1464 1464 1465 1466 1466 1466 1467 1467 1467 1467 1467 1467 1467 1467 1466 1466 1465 1464 1463 1463 1462 1461 1460 1458 1457 1456 1454 1452 1451 1449 1447 1445 1444
1453 1454 1455 1456 1456 1457 1458 1459 1459 1460 1461 1462 1463 1464 1464 1465 1465 1465 1465 1465 1465 1465 1465 1465 1465 1464 1464 1463 1463 1462 1461 1460 1459 1458 1456 1455 1453 1451 1450 1448 1446 1445 1443 1440
1452 1453 1454 1454 1455 1456 1457 1458 1459 1459 1460 1461 1462 1462 1463 1463 1463 1463 1463 1463 1464 1463 1463 1463 1463 1462 1462 1461 1461 1460 1459 1458 1457 1455 1454 1452 1451 1449 1447 1445 1444 1442 1440 1437
1451 1452 1453 1454 1455 1456 1456 1457 1458 1458 1459 1460 1460 1461 1461 1462 1462 1461 1461 1461 1461 1461 1461 1461 1461 1460 1460 1459 1459 1458 1457 1456 1454 1453 1451 1450 1448 1447 1445 1443 1441 1439 1436 1434